Time,TemperatureF,DewpointF,PressureIn,WindDirection,WindDirectionDegrees,WindSpeedMPH,WindSpeedGustMPH,Humidity,HourlyPrecipIn,Conditions,Clouds,dailyrainin,SoftwareType,DateUTC
2013-02-16 00:00:00,10.2,1.4,30.13,NW,313,3.0,6.0,67,0.00,CLR,,0.00,WeatherDisplay:10.37,2013-02-16 06:00:00,
2013-02-16 00:05:00,10.0,1.2,30.13,NW,311,2.0,7.0,67,0.00,CLR,,0.00,WeatherDisplay:10.37,2013-02-16 06:05:00,
2013-02-16 00:10:00,10.0,1.2,30.13,NW,309,3.0,6.0,67,0.00,CLR,,0.00,WeatherDisplay:10.37,2013-02-16 06:10:00,
2013-02-16 00:15:00,9.9,1.4,30.13,NW,310,3.0,8.0,68,0.00,CLR,,0.00,WeatherDisplay:10.37,2013-02-16 06:15:00,
2013-02-16 00:20:00,9.9,1.4,30.13,NW,320,2.0,7.0,68,0.00,CLR,,0.00,WeatherDisplay:10.37,2013-02-16 06:20:00,
2013-02-16 00:25:00,9.7,1.2,30.13,NW,321,3.0,6.0,68,0.00,CLR,,0.00,WeatherDisplay:10.37,2013-02-16 06:25:00,
2013-02-16 00:30:00,9.7,1.2,30.13,NW,324,2.0,7.0,68,0.00,CLR,,0.00,WeatherDisplay:10.37,2013-02-16 06:30:00,
2013-02-16 00:34:00,9.7,1.2,30.13,NNW,338,5.0,12.0,68,0.00,CLR,,0.00,WeatherDisplay:10.37,2013-02-16 06:34:00,
2013-02-16 00:40:00,9.7,1.2,30.13,NNW,340,2.0,6.0,68,0.00,CLR,,0.00,WeatherDisplay:10.37,2013-02-16 06:40:00,
2013-02-16 00:45:00,9.5,1.1,30.13,NW,326,3.0,6.0,68,0.00,CLR,,0.00,WeatherDisplay:10.37,2013-02-16 06:45:00,
2013-02-16 00:50:00,9.3,0.9,30.13,NNW,334,3.0,8.0,68,0.00,CLR,,0.00,WeatherDisplay:10.37,2013-02-16 06:50:00,
2013-02-16 00:55:00,9.2,0.8,30.13,NW,322,3.0,6.0,68,0.00,CLR,,0.00,WeatherDisplay:10.37,2013-02-16 06:55:00,
2013-02-16 01:00:00,9.0,0.6,30.13,NW,318,2.0,7.0,68,0.00,CLR,,0.00,WeatherDisplay:10.37,2013-02-16 07:00:00,
2013-02-16 01:05:00,8.8,0.7,30.13,NW,321,3.0,7.0,69,0.00,CLR,,0.00,WeatherDisplay:10.37,2013-02-16 07:05:00,
2013-02-16 01:10:00,8.6,0.5,30.13,NW,314,2.0,6.0,69,0.00,CLR,,0.00,WeatherDisplay:10.37,2013-02-16 07:10:00,
2013-02-16 01:14:00,8.4,0.6,30.12,NW,318,3.0,8.0,70,0.00,CLR,,0.00,WeatherDisplay:10.37,2013-02-16 07:14:00,
2013-02-16 01:20:00,8.3,0.5,30.12,NW,324,3.0,7.0,70,0.00,CLR,,0.00,WeatherDisplay:10.37,2013-02-16 07:20:00,
2013-02-16 01:25:00,8.1,0.3,30.12,NW,313,2.0,6.0,70,0.00,CLR,,0.00,WeatherDisplay:10.37,2013-02-16 07:25:00,
2013-02-16 01:30:00,7.9,0.1,30.12,NW,323,2.0,6.0,70,0.00,CLR,,0.00,WeatherDisplay:10.37,2013-02-16 07:30:00,
2013-02-16 01:35:00,7.9,0.4,30.12,NNW,336,3.0,6.0,71,0.00,CLR,,0.00,WeatherDisplay:10.37,2013-02-16 07:35:00,
2013-02-16 01:40:00,7.9,0.4,30.12,NW,323,3.0,9.0,71,0.00,CLR,,0.00,WeatherDisplay:10.37,2013-02-16 07:40:00,
2013-02-16 01:45:00,7.9,0.4,30.12,NW,322,3.0,8.0,71,0.00,CLR,,0.00,WeatherDisplay:10.37,2013-02-16 07:45:00,
2013-02-16 01:50:00,7.7,0.2,30.12,NW,324,3.0,7.0,71,0.00,CLR,,0.00,WeatherDisplay:10.37,2013-02-16 07:50:00,
2013-02-16 01:55:00,7.7,0.2,30.12,NNW,327,2.0,6.0,71,0.00,CLR,,0.00,WeatherDisplay:10.37,2013-02-16 07:55:00,
2013-02-16 02:00:00,7.6,0.2,30.12,NW,326,1.0,5.0,71,0.00,CLR,,0.00,WeatherDisplay:10.37,2013-02-16 08:00:00,
2013-02-16 02:04:00,7.4,0.3,30.12,NW,322,2.0,7.0,72,0.00,CLR,,0.00,WeatherDisplay:10.37,2013-02-16 08:04:00,
2013-02-16 02:10:00,7.2,-0.2,30.12,NW,313,1.0,4.0,71,0.00,CLR,,0.00,WeatherDisplay:10.37,2013-02-16 08:10:00,
2013-02-16 02:20:00,6.9,-0.2,30.12,WNW,303,1.0,3.0,72,0.00,CLR,,0.00,WeatherDisplay:10.37,2013-02-16 08:20:00,
2013-02-16 02:25:00,6.9,-0.2,30.12,NW,308,1.0,4.0,72,0.00,CLR,,0.00,WeatherDisplay:10.37,2013-02-16 08:25:00,
2013-02-16 02:30:00,6.7,-0.4,30.11,NW,309,1.0,3.0,72,0.00,CLR,,0.00,WeatherDisplay:10.37,2013-02-16 08:30:00,
2013-02-16 02:35:00,6.5,-0.6,30.11,NW,309,2.0,3.0,72,0.00,CLR,,0.00,WeatherDisplay:10.37,2013-02-16 08:35:00,
2013-02-16 02:40:00,6.5,-0.6,30.11,NW,309,1.0,3.0,72,0.00,CLR,,0.00,WeatherDisplay:10.37,2013-02-16 08:40:00,
2013-02-16 02:45:00,6.3,-0.8,30.11,NW,309,0.0,2.0,72,0.00,CLR,,0.00,WeatherDisplay:10.37,2013-02-16 08:45:00,
2013-02-16 02:50:00,6.0,-1.1,30.11,NW,309,1.0,2.0,72,0.00,CLR,,0.00,WeatherDisplay:10.37,2013-02-16 08:50:00,
2013-02-16 02:55:00,6.0,-0.8,30.11,NW,309,2.0,4.0,73,0.00,CLR,,0.00,WeatherDisplay:10.37,2013-02-16 08:55:00,
2013-02-16 03:00:00,6.0,-0.8,30.10,NW,309,2.0,4.0,73,0.00,CLR,,0.00,WeatherDisplay:10.37,2013-02-16 09:00:00,
2013-02-16 03:05:00,6.0,-0.8,30.10,NW,309,1.0,4.0,73,0.00,CLR,,0.00,WeatherDisplay:10.37,2013-02-16 09:05:00,
2013-02-16 03:10:00,6.0,-0.8,30.10,NW,309,1.0,2.0,73,0.00,CLR,,0.00,WeatherDisplay:10.37,2013-02-16 09:10:00,
2013-02-16 03:15:00,5.8,-1.0,30.10,NW,309,0.0,3.0,73,0.00,CLR,,0.00,WeatherDisplay:10.37,2013-02-16 09:15:00,
2013-02-16 03:20:00,5.8,-0.7,30.10,NW,309,1.0,4.0,74,0.00,CLR,,0.00,WeatherDisplay:10.37,2013-02-16 09:20:00,
2013-02-16 03:25:00,6.0,-0.2,30.10,NW,307,2.0,4.0,75,0.00,CLR,,0.00,WeatherDisplay:10.37,2013-02-16 09:25:00,
2013-02-16 03:30:00,6.1,-0.4,30.10,NW,314,2.0,4.0,74,0.00,CLR,,0.00,WeatherDisplay:10.37,2013-02-16 09:30:00,
2013-02-16 03:35:00,6.4,-0.1,30.10,NW,317,2.0,4.0,74,0.00,CLR,,0.00,WeatherDisplay:10.37,2013-02-16 09:35:00,
2013-02-16 03:45:00,6.9,0.1,30.10,NW,315,2.0,4.0,73,0.00,CLR,,0.00,WeatherDisplay:10.37,2013-02-16 09:45:00,
2013-02-16 03:50:00,6.9,-0.2,30.10,NW,313,1.0,3.0,72,0.00,CLR,,0.00,WeatherDisplay:10.37,2013-02-16 09:50:00,
2013-02-16 03:55:00,7.0,-0.1,30.10,NW,318,1.0,3.0,72,0.00,CLR,,0.00,WeatherDisplay:10.37,2013-02-16 09:55:00,
2013-02-16 04:00:00,7.0,-0.1,30.10,NW,321,1.0,3.0,72,0.00,CLR,,0.00,WeatherDisplay:10.37,2013-02-16 10:00:00,
2013-02-16 04:05:00,7.0,0.2,30.10,NW,317,1.0,4.0,73,0.00,CLR,,0.00,WeatherDisplay:10.37,2013-02-16 10:05:00,
2013-02-16 04:10:00,7.0,0.2,30.10,NW,314,1.0,3.0,73,0.00,CLR,,0.00,WeatherDisplay:10.37,2013-02-16 10:10:00,
2013-02-16 04:20:00,7.0,0.2,30.10,NW,312,1.0,3.0,73,0.00,CLR,,0.00,WeatherDisplay:10.37,2013-02-16 10:20:00,
2013-02-16 04:25:00,7.0,0.2,30.10,NW,312,0.0,2.0,73,0.00,CLR,,0.00,WeatherDisplay:10.37,2013-02-16 10:25:00,
2013-02-16 04:30:00,7.0,0.2,30.10,NW,312,0.0,0.0,73,0.00,CLR,,0.00,WeatherDisplay:10.37,2013-02-16 10:30:00,
2013-02-16 04:35:00,7.0,0.5,30.10,NW,312,1.0,3.0,74,0.00,CLR,,0.00,WeatherDisplay:10.37,2013-02-16 10:35:00,
2013-02-16 04:40:00,7.0,0.5,30.10,NW,312,1.0,2.0,74,0.00,CLR,,0.00,WeatherDisplay:10.37,2013-02-16 10:40:00,
2013-02-16 04:45:00,7.2,0.7,30.09,NW,313,1.0,4.0,74,0.00,CLR,,0.00,WeatherDisplay:10.37,2013-02-16 10:45:00,
2013-02-16 04:50:00,7.2,0.7,30.09,NW,312,1.0,4.0,74,0.00,CLR,,0.00,WeatherDisplay:10.37,2013-02-16 10:50:00,
2013-02-16 04:55:00,7.4,0.8,30.09,NW,306,2.0,5.0,74,0.00,CLR,,0.00,WeatherDisplay:10.37,2013-02-16 10:55:00,
2013-02-16 05:00:00,7.6,1.0,30.10,NW,305,2.0,5.0,74,0.00,CLR,,0.00,WeatherDisplay:10.37,2013-02-16 11:00:00,
2013-02-16 05:05:00,7.6,1.0,30.10,NW,309,1.0,3.0,74,0.00,CLR,,0.00,WeatherDisplay:10.37,2013-02-16 11:05:00,
2013-02-16 05:10:00,7.6,1.0,30.10,NW,313,1.0,2.0,74,0.00,CLR,,0.00,WeatherDisplay:10.37,2013-02-16 11:10:00,
2013-02-16 05:20:00,7.6,1.3,30.09,NNW,328,0.0,2.0,75,0.00,CLR,,0.00,WeatherDisplay:10.37,2013-02-16 11:20:00,
2013-02-16 05:25:00,7.6,1.3,30.09,NNW,329,0.0,3.0,75,0.00,CLR,,0.00,WeatherDisplay:10.37,2013-02-16 11:25:00,
2013-02-16 05:30:00,7.7,1.4,30.10,NW,316,2.0,5.0,75,0.00,CLR,,0.00,WeatherDisplay:10.37,2013-02-16 11:30:00,
2013-02-16 05:35:00,7.9,1.6,30.10,NW,315,3.0,5.0,75,0.00,CLR,,0.00,WeatherDisplay:10.37,2013-02-16 11:35:00,
2013-02-16 05:40:00,7.9,1.3,30.10,NW,313,1.0,3.0,74,0.00,CLR,,0.00,WeatherDisplay:10.37,2013-02-16 11:40:00,
2013-02-16 05:45:00,7.9,1.3,30.09,NW,308,1.0,4.0,74,0.00,CLR,,0.00,WeatherDisplay:10.37,2013-02-16 11:45:00,
2013-02-16 05:50:00,7.9,1.3,30.09,NW,311,1.0,4.0,74,0.00,CLR,,0.00,WeatherDisplay:10.37,2013-02-16 11:50:00,
2013-02-16 05:55:00,7.9,1.3,30.09,NW,320,1.0,4.0,74,0.00,CLR,,0.00,WeatherDisplay:10.37,2013-02-16 11:55:00,
2013-02-16 06:00:00,8.1,1.5,30.09,NW,312,2.0,4.0,74,0.00,CLR,,0.00,WeatherDisplay:10.37,2013-02-16 12:00:00,
2013-02-16 06:10:00,8.1,1.5,30.09,NW,320,1.0,3.0,74,0.00,CLR,,0.00,WeatherDisplay:10.37,2013-02-16 12:10:00,
2013-02-16 06:15:00,8.3,1.7,30.09,NW,320,1.0,4.0,74,0.00,CLR,,0.00,WeatherDisplay:10.37,2013-02-16 12:15:00,
2013-02-16 06:20:00,8.3,1.7,30.09,NW,324,2.0,5.0,74,0.00,CLR,,0.00,WeatherDisplay:10.37,2013-02-16 12:20:00,
2013-02-16 06:25:00,8.4,1.8,30.09,NW,312,1.0,4.0,74,0.00,CLR,,0.00,WeatherDisplay:10.37,2013-02-16 12:25:00,
2013-02-16 06:30:00,8.4,1.8,30.09,NW,322,2.0,6.0,74,0.00,CLR,,0.00,WeatherDisplay:10.37,2013-02-16 12:30:00,
2013-02-16 06:35:00,8.4,1.5,30.09,NNW,328,2.0,6.0,73,0.00,CLR,,0.00,WeatherDisplay:10.37,2013-02-16 12:35:00,
2013-02-16 06:40:00,8.4,2.1,30.09,NNW,330,2.0,3.0,75,0.00,CLR,,0.00,WeatherDisplay:10.37,2013-02-16 12:40:00,
2013-02-16 06:45:00,8.4,2.1,30.10,NNW,337,1.0,3.0,75,0.00,CLR,,0.00,WeatherDisplay:10.37,2013-02-16 12:45:00,
2013-02-16 06:50:00,8.4,2.1,30.10,NNW,331,2.0,4.0,75,0.00,CLR,,0.00,WeatherDisplay:10.37,2013-02-16 12:50:00,
2013-02-16 06:59:00,8.6,2.0,30.09,NNW,331,2.0,5.0,74,0.00,CLR,,0.00,WeatherDisplay:10.37,2013-02-16 12:59:00,
2013-02-16 07:04:00,8.6,1.7,30.09,NNW,329,2.0,6.0,73,0.00,CLR,,0.00,WeatherDisplay:10.37,2013-02-16 13:04:00,
2013-02-16 07:10:00,8.6,1.7,30.09,NNW,332,2.0,5.0,73,0.00,CLR,,0.00,WeatherDisplay:10.37,2013-02-16 13:10:00,
2013-02-16 07:15:00,8.8,1.9,30.10,NNW,334,2.0,5.0,73,0.00,CLR,,0.00,WeatherDisplay:10.37,2013-02-16 13:15:00,
2013-02-16 07:20:00,8.8,1.9,30.10,NNW,332,1.0,4.0,73,0.00,CLR,,0.00,WeatherDisplay:10.37,2013-02-16 13:20:00,
2013-02-16 07:25:00,8.8,1.9,30.10,NNW,334,2.0,4.0,73,0.00,CLR,,0.00,WeatherDisplay:10.37,2013-02-16 13:25:00,
2013-02-16 07:30:00,9.0,2.1,30.10,NNW,332,0.0,4.0,73,0.00,CLR,,0.00,WeatherDisplay:10.37,2013-02-16 13:30:00,
2013-02-16 07:40:00,9.1,2.2,30.10,NNW,333,3.0,6.0,73,0.00,CLR,,0.00,WeatherDisplay:10.37,2013-02-16 13:40:00,
2013-02-16 07:45:00,9.2,2.3,30.10,NNW,338,2.0,5.0,73,0.00,CLR,,0.00,WeatherDisplay:10.37,2013-02-16 13:45:00,
2013-02-16 07:50:00,9.2,2.0,30.10,North,349,3.0,6.0,72,0.00,CLR,,0.00,WeatherDisplay:10.37,2013-02-16 13:50:00,
2013-02-16 07:55:00,9.2,2.0,30.10,NNW,341,2.0,5.0,72,0.00,CLR,,0.00,WeatherDisplay:10.37,2013-02-16 13:55:00,
2013-02-16 07:59:00,9.3,2.1,30.11,NW,318,2.0,6.0,72,0.00,CLR,,0.00,WeatherDisplay:10.37,2013-02-16 13:59:00,
2013-02-16 08:05:00,9.3,2.1,30.11,NNW,328,3.0,6.0,72,0.00,CLR,,0.00,WeatherDisplay:10.37,2013-02-16 14:05:00,
2013-02-16 08:09:00,9.5,2.3,30.11,NNW,341,5.0,8.0,72,0.00,CLR,,0.00,WeatherDisplay:10.37,2013-02-16 14:09:00,
2013-02-16 08:14:00,9.5,2.0,30.11,NNW,344,5.0,8.0,71,0.00,CLR,,0.00,WeatherDisplay:10.37,2013-02-16 14:14:00,
2013-02-16 08:19:00,9.5,2.0,30.11,NNW,347,5.0,7.0,71,0.00,CLR,,0.00,WeatherDisplay:10.37,2013-02-16 14:19:00,
2013-02-16 08:24:00,9.5,2.0,30.11,NNW,346,6.0,10.0,71,0.00,CLR,,0.00,WeatherDisplay:10.37,2013-02-16 14:24:00,
2013-02-16 08:29:00,9.5,1.7,30.11,NNW,333,3.0,7.0,70,0.00,CLR,,0.00,WeatherDisplay:10.37,2013-02-16 14:29:00,
2013-02-16 08:34:00,9.5,1.7,30.11,NNW,330,5.0,9.0,70,0.00,CLR,,0.00,WeatherDisplay:10.37,2013-02-16 14:34:00,
2013-02-16 08:39:00,9.5,1.4,30.11,NNW,339,6.0,12.0,69,0.00,CLR,,0.00,WeatherDisplay:10.37,2013-02-16 14:39:00,
2013-02-16 08:44:00,9.5,1.4,30.11,NNW,339,5.0,7.0,69,0.00,CLR,,0.00,WeatherDisplay:10.37,2013-02-16 14:44:00,
2013-02-16 08:50:00,9.5,1.4,30.11,NW,323,3.0,7.0,69,0.00,CLR,,0.00,WeatherDisplay:10.37,2013-02-16 14:50:00,
2013-02-16 09:00:00,9.5,0.7,30.11,NNW,345,8.0,13.0,67,0.00,CLR,,0.00,WeatherDisplay:10.37,2013-02-16 15:00:00,
2013-02-16 09:04:00,9.5,0.7,30.11,NNW,334,5.0,9.0,67,0.00,CLR,,0.00,WeatherDisplay:10.37,2013-02-16 15:04:00,
2013-02-16 09:09:00,9.7,0.6,30.11,NNW,329,6.0,10.0,66,0.00,CLR,,0.00,WeatherDisplay:10.37,2013-02-16 15:09:00,
2013-02-16 09:14:00,9.7,0.0,30.11,North,349,8.0,17.0,64,0.00,CLR,,0.00,WeatherDisplay:10.37,2013-02-16 15:14:00,
2013-02-16 09:19:00,9.5,-0.2,30.11,NNW,343,9.0,12.0,64,0.00,CLR,,0.00,WeatherDisplay:10.37,2013-02-16 15:19:00,
2013-02-16 09:24:00,9.7,0.3,30.11,NNW,333,5.0,10.0,65,0.00,CLR,,0.00,WeatherDisplay:10.37,2013-02-16 15:24:00,
2013-02-16 09:29:00,9.7,0.0,30.11,NNW,336,8.0,12.0,64,0.00,CLR,,0.00,WeatherDisplay:10.37,2013-02-16 15:29:00,
2013-02-16 09:34:00,9.7,0.0,30.11,NNW,342,6.0,14.0,64,0.00,CLR,,0.00,WeatherDisplay:10.37,2013-02-16 15:34:00,
2013-02-16 09:39:00,10.0,-0.1,30.11,NNW,347,6.0,10.0,63,0.00,CLR,,0.00,WeatherDisplay:10.37,2013-02-16 15:39:00,
2013-02-16 09:44:00,10.0,-0.4,30.11,North,349,7.0,12.0,62,0.00,CLR,,0.00,WeatherDisplay:10.37,2013-02-16 15:44:00,
2013-02-16 09:49:00,10.2,-0.2,30.11,NNW,337,6.0,10.0,62,0.00,CLR,,0.00,WeatherDisplay:10.37,2013-02-16 15:49:00,
2013-02-16 09:54:00,10.2,-0.2,30.11,NW,325,6.0,10.0,62,0.00,CLR,,0.00,WeatherDisplay:10.37,2013-02-16 15:54:00,
2013-02-16 10:00:00,10.5,0.4,30.12,NW,326,2.0,6.0,63,0.00,CLR,,0.00,WeatherDisplay:10.37,2013-02-16 16:00:00,
2013-02-16 10:09:00,10.7,-0.5,30.12,WNW,300,7.0,12.0,60,0.00,CLR,,0.00,WeatherDisplay:10.37,2013-02-16 16:09:00,
2013-02-16 10:14:00,10.5,-1.4,30.11,NW,304,5.0,12.0,58,0.00,CLR,,0.00,WeatherDisplay:10.37,2013-02-16 16:14:00,
2013-02-16 10:19:00,10.8,-0.7,30.11,NW,310,6.0,10.0,59,0.00,CLR,,0.00,WeatherDisplay:10.37,2013-02-16 16:19:00,
2013-02-16 10:24:00,11.1,-1.2,30.11,NW,304,6.0,12.0,57,0.00,CLR,,0.00,WeatherDisplay:10.37,2013-02-16 16:24:00,
2013-02-16 10:29:00,10.9,-1.0,30.11,NW,310,5.0,10.0,58,0.00,CLR,,0.00,WeatherDisplay:10.37,2013-02-16 16:29:00,
2013-02-16 10:34:00,11.2,-0.7,30.11,NW,316,5.0,9.0,58,0.00,CLR,,0.00,WeatherDisplay:10.37,2013-02-16 16:34:00,
2013-02-16 10:39:00,11.4,-0.5,30.11,NW,305,6.0,10.0,58,0.00,CLR,,0.00,WeatherDisplay:10.37,2013-02-16 16:39:00,
2013-02-16 10:44:00,11.4,-0.5,30.11,NW,307,5.0,8.0,58,0.00,CLR,,0.00,WeatherDisplay:10.37,2013-02-16 16:44:00,
2013-02-16 10:49:00,11.6,-0.8,30.11,NW,309,7.0,12.0,57,0.00,CLR,,0.00,WeatherDisplay:10.37,2013-02-16 16:49:00,
2013-02-16 10:54:00,11.4,-0.9,30.11,WNW,299,6.0,12.0,57,0.00,CLR,,0.00,WeatherDisplay:10.37,2013-02-16 16:54:00,
2013-02-16 10:59:00,11.6,-1.1,30.11,WNW,302,5.0,10.0,56,0.00,CLR,,0.00,WeatherDisplay:10.37,2013-02-16 16:59:00,
2013-02-16 11:04:00,11.6,-0.7,30.11,WNW,302,5.0,10.0,57,0.00,CLR,,0.00,WeatherDisplay:10.37,2013-02-16 17:04:00,
2013-02-16 11:09:00,11.8,-0.9,30.11,WNW,300,6.0,9.0,56,0.00,CLR,,0.00,WeatherDisplay:10.37,2013-02-16 17:09:00,
2013-02-16 11:14:00,11.9,-0.4,30.11,WNW,301,5.0,12.0,57,0.00,CLR,,0.00,WeatherDisplay:10.37,2013-02-16 17:14:00,
2013-02-16 11:19:00,11.9,-1.2,30.11,WNW,302,6.0,12.0,55,0.00,CLR,,0.00,WeatherDisplay:10.37,2013-02-16 17:19:00,
2013-02-16 11:25:00,12.1,-1.0,30.11,WNW,303,7.0,10.0,55,0.00,CLR,,0.00,WeatherDisplay:10.37,2013-02-16 17:25:00,
2013-02-16 11:30:00,12.3,-0.8,30.11,NW,322,8.0,10.0,55,0.00,CLR,,0.00,WeatherDisplay:10.37,2013-02-16 17:30:00,
2013-02-16 11:40:00,12.5,0.1,30.11,WNW,302,5.0,9.0,57,0.00,CLR,,0.00,WeatherDisplay:10.37,2013-02-16 17:40:00,
2013-02-16 11:45:00,12.4,-0.7,30.11,NW,317,7.0,12.0,55,0.00,CLR,,0.00,WeatherDisplay:10.37,2013-02-16 17:45:00,
2013-02-16 11:50:00,12.4,-0.3,30.11,NNW,327,5.0,12.0,56,0.00,CLR,,0.00,WeatherDisplay:10.37,2013-02-16 17:50:00,
2013-02-16 11:55:00,12.8,0.0,30.11,NW,320,6.0,10.0,56,0.00,CLR,,0.00,WeatherDisplay:10.37,2013-02-16 17:55:00,
2013-02-16 12:00:00,12.6,0.6,30.10,NW,321,3.0,8.0,58,0.00,CLR,,0.00,WeatherDisplay:10.37,2013-02-16 18:00:00,
2013-02-16 12:05:00,12.8,0.0,30.10,NNW,336,8.0,13.0,56,0.00,CLR,,0.00,WeatherDisplay:10.37,2013-02-16 18:05:00,
2013-02-16 12:10:00,12.8,0.0,30.10,NNW,332,3.0,8.0,56,0.00,CLR,,0.00,WeatherDisplay:10.37,2013-02-16 18:10:00,
2013-02-16 12:15:00,12.9,-0.6,30.10,NW,311,6.0,10.0,54,0.00,CLR,,0.00,WeatherDisplay:10.37,2013-02-16 18:15:00,
2013-02-16 12:20:00,12.9,-0.6,30.10,NW,308,5.0,12.0,54,0.00,CLR,,0.00,WeatherDisplay:10.37,2013-02-16 18:20:00,
2013-02-16 12:25:00,13.0,-0.1,30.10,NW,324,7.0,13.0,55,0.00,CLR,,0.00,WeatherDisplay:10.37,2013-02-16 18:25:00,
2013-02-16 12:30:00,13.1,-0.5,30.10,North,357,5.0,12.0,54,0.00,CLR,,0.00,WeatherDisplay:10.37,2013-02-16 18:30:00,
2013-02-16 12:35:00,13.5,0.3,30.10,North,353,3.0,7.0,55,0.00,CLR,,0.00,WeatherDisplay:10.37,2013-02-16 18:35:00,
2013-02-16 12:40:00,13.5,0.3,30.10,NNW,348,6.0,12.0,55,0.00,CLR,,0.00,WeatherDisplay:10.37,2013-02-16 18:40:00,
2013-02-16 12:45:00,13.1,-0.5,30.09,North,354,7.0,13.0,54,0.00,CLR,,0.00,WeatherDisplay:10.37,2013-02-16 18:45:00,
2013-02-16 12:50:00,13.3,0.5,30.09,North,350,3.0,12.0,56,0.00,CLR,,0.00,WeatherDisplay:10.37,2013-02-16 18:50:00,
2013-02-16 12:55:00,13.3,-0.3,30.09,North,350,6.0,12.0,54,0.00,CLR,,0.00,WeatherDisplay:10.37,2013-02-16 18:55:00,
2013-02-16 13:00:00,13.5,0.3,30.09,NNW,347,5.0,12.0,55,0.00,CLR,,0.00,WeatherDisplay:10.37,2013-02-16 19:00:00,
2013-02-16 13:05:00,13.6,0.0,30.09,NNW,338,2.0,6.0,54,0.00,CLR,,0.00,WeatherDisplay:10.37,2013-02-16 19:05:00,
2013-02-16 13:10:00,13.5,-0.9,30.09,NW,317,3.0,9.0,52,0.00,CLR,,0.00,WeatherDisplay:10.37,2013-02-16 19:10:00,
2013-02-16 13:15:00,13.5,-0.1,30.09,NNW,336,7.0,12.0,54,0.00,CLR,,0.00,WeatherDisplay:10.37,2013-02-16 19:15:00,
2013-02-16 13:20:00,13.3,-1.1,30.09,North,350,3.0,12.0,52,0.00,CLR,,0.00,WeatherDisplay:10.37,2013-02-16 19:20:00,
2013-02-16 13:25:00,13.5,-0.9,30.09,NNW,338,3.0,9.0,52,0.00,CLR,,0.00,WeatherDisplay:10.37,2013-02-16 19:25:00,
2013-02-16 13:30:00,14.0,0.0,30.09,NNW,344,5.0,15.0,53,0.00,CLR,,0.00,WeatherDisplay:10.37,2013-02-16 19:30:00,
2013-02-16 13:35:00,14.1,-0.3,30.09,North,350,3.0,7.0,52,0.00,CLR,,0.00,WeatherDisplay:10.37,2013-02-16 19:35:00,
2013-02-16 13:40:00,13.8,-0.2,30.09,North,356,6.0,12.0,53,0.00,CLR,,0.00,WeatherDisplay:10.37,2013-02-16 19:40:00,
2013-02-16 13:45:00,13.8,-1.0,30.09,North,0,2.0,7.0,51,0.00,CLR,,0.00,WeatherDisplay:10.37,2013-02-16 19:45:00,
2013-02-16 13:50:00,14.2,-0.2,30.09,NNW,345,5.0,7.0,52,0.00,CLR,,0.00,WeatherDisplay:10.37,2013-02-16 19:50:00,
2013-02-16 13:55:00,14.3,-0.6,30.09,NNW,348,6.0,9.0,51,0.00,CLR,,0.00,WeatherDisplay:10.37,2013-02-16 19:55:00,
2013-02-16 14:00:00,14.3,-0.6,30.08,North,360,7.0,12.0,51,0.00,CLR,,0.00,WeatherDisplay:10.37,2013-02-16 20:00:00,
2013-02-16 14:05:00,14.3,-0.1,30.08,North,359,6.0,9.0,52,0.00,CLR,,0.00,WeatherDisplay:10.37,2013-02-16 20:05:00,
2013-02-16 14:10:00,14.1,-0.7,30.08,North,5,7.0,13.0,51,0.00,CLR,,0.00,WeatherDisplay:10.37,2013-02-16 20:10:00,
2013-02-16 14:15:00,14.1,-1.6,30.08,North,2,5.0,10.0,49,0.00,CLR,,0.00,WeatherDisplay:10.37,2013-02-16 20:15:00,
2013-02-16 14:20:00,14.3,-1.4,30.08,North,1,7.0,12.0,49,0.00,CLR,,0.00,WeatherDisplay:10.37,2013-02-16 20:20:00,
2013-02-16 14:25:00,14.3,-1.0,30.08,North,6,8.0,10.0,50,0.00,CLR,,0.00,WeatherDisplay:10.37,2013-02-16 20:25:00,
2013-02-16 14:30:00,13.9,-0.9,30.08,North,7,7.0,12.0,51,0.00,CLR,,0.00,WeatherDisplay:10.37,2013-02-16 20:30:00,
2013-02-16 14:35:00,14.0,-2.1,30.08,North,11,5.0,9.0,48,0.00,CLR,,0.00,WeatherDisplay:10.37,2013-02-16 20:35:00,
2013-02-16 14:40:00,14.1,-1.2,30.08,NNE,12,6.0,8.0,50,0.00,CLR,,0.00,WeatherDisplay:10.37,2013-02-16 20:40:00,
2013-02-16 14:45:00,14.1,-1.6,30.08,North,4,3.0,8.0,49,0.00,CLR,,0.00,WeatherDisplay:10.37,2013-02-16 20:45:00,
2013-02-16 14:50:00,14.2,-1.9,30.08,North,3,8.0,10.0,48,0.00,CLR,,0.00,WeatherDisplay:10.37,2013-02-16 20:50:00,
2013-02-16 14:55:00,14.1,-1.6,30.08,North,6,7.0,9.0,49,0.00,CLR,,0.00,WeatherDisplay:10.37,2013-02-16 20:55:00,
2013-02-16 15:00:00,14.0,-1.7,30.08,North,11,7.0,8.0,49,0.00,CLR,,0.00,WeatherDisplay:10.37,2013-02-16 21:00:00,
2013-02-16 15:05:00,13.8,-1.9,30.08,North,10,7.0,10.0,49,0.00,CLR,,0.00,WeatherDisplay:10.37,2013-02-16 21:05:00,
2013-02-16 15:10:00,14.1,-1.2,30.08,North,6,2.0,10.0,50,0.00,CLR,,0.00,WeatherDisplay:10.37,2013-02-16 21:10:00,
2013-02-16 15:15:00,14.4,-1.3,30.09,North,2,5.0,7.0,49,0.00,CLR,,0.00,WeatherDisplay:10.37,2013-02-16 21:15:00,
2013-02-16 15:20:00,14.3,-1.8,30.09,North,353,5.0,8.0,48,0.00,CLR,,0.00,WeatherDisplay:10.37,2013-02-16 21:20:00,
2013-02-16 15:25:00,14.1,-1.6,30.09,NNW,346,3.0,7.0,49,0.00,CLR,,0.00,WeatherDisplay:10.37,2013-02-16 21:25:00,
2013-02-16 15:30:00,14.1,-0.7,30.09,NNW,346,3.0,5.0,51,0.00,CLR,,0.00,WeatherDisplay:10.37,2013-02-16 21:30:00,
2013-02-16 15:35:00,14.1,-1.2,30.09,North,359,3.0,5.0,50,0.00,CLR,,0.00,WeatherDisplay:10.37,2013-02-16 21:35:00,
2013-02-16 15:40:00,14.2,-2.0,30.09,North,358,3.0,5.0,48,0.00,CLR,,0.00,WeatherDisplay:10.37,2013-02-16 21:40:00,
2013-02-16 15:45:00,14.3,-1.8,30.10,North,359,5.0,6.0,48,0.00,CLR,,0.00,WeatherDisplay:10.37,2013-02-16 21:45:00,
2013-02-16 15:50:00,14.4,-1.7,30.10,North,8,5.0,6.0,48,0.00,CLR,,0.00,WeatherDisplay:10.37,2013-02-16 21:50:00,
2013-02-16 15:55:00,14.4,-1.7,30.10,North,5,5.0,6.0,48,0.00,CLR,,0.00,WeatherDisplay:10.37,2013-02-16 21:55:00,
2013-02-16 16:00:00,14.4,-1.7,30.10,North,8,3.0,6.0,48,0.00,CLR,,0.00,WeatherDisplay:10.37,2013-02-16 22:00:00,
2013-02-16 16:05:00,14.3,-1.8,30.10,North,7,3.0,6.0,48,0.00,CLR,,0.00,WeatherDisplay:10.37,2013-02-16 22:05:00,
2013-02-16 16:10:00,14.1,-2.5,30.10,North,6,5.0,8.0,47,0.00,CLR,,0.00,WeatherDisplay:10.37,2013-02-16 22:10:00,
2013-02-16 16:15:00,14.0,-2.1,30.10,North,6,5.0,7.0,48,0.00,CLR,,0.00,WeatherDisplay:10.37,2013-02-16 22:15:00,
2013-02-16 16:20:00,13.8,-1.9,30.10,North,3,3.0,6.0,49,0.00,CLR,,0.00,WeatherDisplay:10.37,2013-02-16 22:20:00,
2013-02-16 16:25:00,13.8,-1.9,30.10,North,8,3.0,5.0,49,0.00,CLR,,0.00,WeatherDisplay:10.37,2013-02-16 22:25:00,
2013-02-16 16:30:00,13.8,-2.3,30.10,North,10,3.0,5.0,48,0.00,CLR,,0.00,WeatherDisplay:10.37,2013-02-16 22:30:00,
2013-02-16 16:35:00,13.9,-1.4,30.10,North,5,3.0,5.0,50,0.00,CLR,,0.00,WeatherDisplay:10.37,2013-02-16 22:35:00,
2013-02-16 16:40:00,14.0,-1.7,30.10,North,6,5.0,6.0,49,0.00,CLR,,0.00,WeatherDisplay:10.37,2013-02-16 22:40:00,
2013-02-16 16:45:00,14.1,-2.5,30.10,North,8,5.0,6.0,47,0.00,CLR,,0.00,WeatherDisplay:10.37,2013-02-16 22:45:00,
2013-02-16 16:50:00,14.0,-2.6,30.10,North,7,2.0,6.0,47,0.00,CLR,,0.00,WeatherDisplay:10.37,2013-02-16 22:50:00,
2013-02-16 16:55:00,13.9,-2.6,30.10,North,6,5.0,6.0,47,0.00,CLR,,0.00,WeatherDisplay:10.37,2013-02-16 22:55:00,
2013-02-16 17:00:00,13.8,-2.7,30.10,North,359,3.0,4.0,47,0.00,CLR,,0.00,WeatherDisplay:10.37,2013-02-16 23:00:00,
2013-02-16 17:05:00,13.6,-2.1,30.10,North,352,2.0,5.0,49,0.00,CLR,,0.00,WeatherDisplay:10.37,2013-02-16 23:05:00,
2013-02-16 17:10:00,13.5,-2.5,30.10,North,359,1.0,4.0,48,0.00,CLR,,0.00,WeatherDisplay:10.37,2013-02-16 23:10:00,
2013-02-16 17:15:00,13.5,-2.6,30.11,North,8,2.0,3.0,48,0.00,CLR,,0.00,WeatherDisplay:10.37,2013-02-16 23:15:00,
2013-02-16 17:25:00,13.1,-3.0,30.11,North,352,1.0,3.0,48,0.00,CLR,,0.00,WeatherDisplay:10.37,2013-02-16 23:25:00,
2013-02-16 17:30:00,12.8,-2.8,30.11,North,352,0.0,1.0,49,0.00,CLR,,0.00,WeatherDisplay:10.37,2013-02-16 23:30:00,
2013-02-16 17:35:00,12.6,-2.6,30.11,North,352,1.0,2.0,50,0.00,CLR,,0.00,WeatherDisplay:10.37,2013-02-16 23:35:00,
2013-02-16 17:40:00,12.4,-2.7,30.11,North,353,0.0,2.0,50,0.00,CLR,,0.00,WeatherDisplay:10.37,2013-02-16 23:40:00,
2013-02-16 17:45:00,12.1,-2.6,30.12,North,352,0.0,1.0,51,0.00,CLR,,0.00,WeatherDisplay:10.37,2013-02-16 23:45:00,
2013-02-16 17:50:00,11.9,-2.8,30.12,North,352,0.0,0.0,51,0.00,CLR,,0.00,WeatherDisplay:10.37,2013-02-16 23:50:00,
2013-02-16 17:55:00,11.7,-3.0,30.12,North,352,0.0,0.0,51,0.00,CLR,,0.00,WeatherDisplay:10.37,2013-02-16 23:55:00,
2013-02-16 18:00:00,11.6,-3.1,30.12,North,352,0.0,0.0,51,0.00,CLR,,0.00,WeatherDisplay:10.37,2013-02-17 00:00:00,
2013-02-16 18:05:00,11.4,-3.3,30.12,North,352,0.0,2.0,51,0.00,CLR,,0.00,WeatherDisplay:10.37,2013-02-17 00:05:00,
2013-02-16 18:10:00,11.2,-3.5,30.12,North,352,0.0,1.0,51,0.00,CLR,,0.00,WeatherDisplay:10.37,2013-02-17 00:10:00,
2013-02-16 18:15:00,11.1,-3.5,30.12,North,353,1.0,2.0,51,0.00,CLR,,0.00,WeatherDisplay:10.37,2013-02-17 00:15:00,
2013-02-16 18:20:00,11.1,-3.5,30.12,North,353,1.0,2.0,51,0.00,CLR,,0.00,WeatherDisplay:10.37,2013-02-17 00:20:00,
2013-02-16 18:25:00,11.1,-3.5,30.12,North,353,0.0,1.0,51,0.00,CLR,,0.00,WeatherDisplay:10.37,2013-02-17 00:25:00,
2013-02-16 18:30:00,10.9,-3.7,30.13,North,352,0.0,1.0,51,0.00,CLR,,0.00,WeatherDisplay:10.37,2013-02-17 00:30:00,
2013-02-16 18:35:00,10.7,-3.9,30.13,North,351,0.0,2.0,51,0.00,CLR,,0.00,WeatherDisplay:10.37,2013-02-17 00:35:00,
2013-02-16 18:40:00,10.5,-4.1,30.13,North,351,0.0,1.0,51,0.00,CLR,,0.00,WeatherDisplay:10.37,2013-02-17 00:40:00,
2013-02-16 18:45:00,10.4,-4.2,30.13,North,352,0.0,0.0,51,0.00,CLR,,0.00,WeatherDisplay:10.37,2013-02-17 00:45:00,
2013-02-16 18:50:00,10.2,-4.0,30.13,North,352,0.0,0.0,52,0.00,CLR,,0.00,WeatherDisplay:10.37,2013-02-17 00:50:00,
2013-02-16 18:54:00,9.9,-3.1,30.13,North,351,0.0,1.0,55,0.00,CLR,,0.00,WeatherDisplay:10.37,2013-02-17 00:54:00,
2013-02-16 19:00:00,9.5,-2.0,30.13,North,351,0.0,0.0,59,0.00,CLR,,0.00,WeatherDisplay:10.37,2013-02-17 01:00:00,
2013-02-16 19:05:00,9.0,-2.4,30.13,North,353,0.0,0.0,59,0.00,CLR,,0.00,WeatherDisplay:10.37,2013-02-17 01:05:00,
2013-02-16 19:10:00,8.4,-2.7,30.13,North,353,0.0,0.0,60,0.00,CLR,,0.00,WeatherDisplay:10.37,2013-02-17 01:10:00,
2013-02-16 19:15:00,7.8,-3.3,30.13,North,352,0.0,0.0,60,0.00,CLR,,0.00,WeatherDisplay:10.37,2013-02-17 01:15:00,
2013-02-16 19:20:00,7.2,-3.8,30.13,North,352,0.0,0.0,60,0.00,CLR,,0.00,WeatherDisplay:10.37,2013-02-17 01:20:00,
2013-02-16 19:25:00,6.7,-3.9,30.13,North,353,0.0,0.0,61,0.00,CLR,,0.00,WeatherDisplay:10.37,2013-02-17 01:25:00,
2013-02-16 19:29:00,6.1,-4.1,30.13,North,352,0.0,0.0,62,0.00,CLR,,0.00,WeatherDisplay:10.37,2013-02-17 01:29:00,
2013-02-16 19:35:00,5.7,-3.5,30.13,North,352,0.0,0.0,65,0.00,CLR,,0.00,WeatherDisplay:10.37,2013-02-17 01:35:00,
2013-02-16 19:39:00,5.2,-4.3,30.13,North,352,0.0,0.0,64,0.00,CLR,,0.00,WeatherDisplay:10.37,2013-02-17 01:39:00,
2013-02-16 19:45:00,4.8,-4.7,30.13,North,352,0.0,0.0,64,0.00,CLR,,0.00,WeatherDisplay:10.37,2013-02-17 01:45:00,
2013-02-16 19:50:00,4.5,-5.0,30.13,North,352,0.0,0.0,64,0.00,CLR,,0.00,WeatherDisplay:10.37,2013-02-17 01:50:00,
2013-02-16 19:54:00,4.3,-5.2,30.13,North,352,0.0,0.0,64,0.00,CLR,,0.00,WeatherDisplay:10.37,2013-02-17 01:54:00,
2013-02-16 20:00:00,4.0,-5.2,30.13,North,353,0.0,0.0,65,0.00,CLR,,0.00,WeatherDisplay:10.37,2013-02-17 02:00:00,
2013-02-16 20:04:00,3.7,-5.2,30.13,North,352,0.0,0.0,66,0.00,CLR,,0.00,WeatherDisplay:10.37,2013-02-17 02:04:00,
2013-02-16 20:10:00,3.4,-5.4,30.13,North,351,0.0,0.0,66,0.00,CLR,,0.00,WeatherDisplay:10.37,2013-02-17 02:10:00,
2013-02-16 20:15:00,3.4,-5.4,30.13,North,351,0.0,0.0,66,0.00,CLR,,0.00,WeatherDisplay:10.37,2013-02-17 02:15:00,
2013-02-16 20:19:00,3.4,-5.4,30.13,North,351,0.0,0.0,66,0.00,CLR,,0.00,WeatherDisplay:10.37,2013-02-17 02:19:00,
2013-02-16 20:25:00,3.2,-5.3,30.13,North,352,0.0,0.0,67,0.00,CLR,,0.00,WeatherDisplay:10.37,2013-02-17 02:25:00,
2013-02-16 20:30:00,3.0,-5.8,30.13,North,352,0.0,0.0,66,0.00,CLR,,0.00,WeatherDisplay:10.37,2013-02-17 02:30:00,
2013-02-16 20:35:00,2.8,-5.7,30.13,North,351,0.0,0.0,67,0.00,CLR,,0.00,WeatherDisplay:10.37,2013-02-17 02:35:00,
2013-02-16 20:40:00,2.6,-5.6,30.13,North,353,0.0,0.0,68,0.00,CLR,,0.00,WeatherDisplay:10.37,2013-02-17 02:40:00,
2013-02-16 20:45:00,2.4,-6.1,30.13,North,352,0.0,0.0,67,0.00,CLR,,0.00,WeatherDisplay:10.37,2013-02-17 02:45:00,
2013-02-16 20:50:00,2.2,-6.0,30.13,North,353,0.0,0.0,68,0.00,CLR,,0.00,WeatherDisplay:10.37,2013-02-17 02:50:00,
2013-02-16 20:55:00,2.2,-6.0,30.13,North,353,0.0,0.0,68,0.00,CLR,,0.00,WeatherDisplay:10.37,2013-02-17 02:55:00,
2013-02-16 21:00:00,2.0,-6.1,30.14,North,351,0.0,0.0,68,0.00,CLR,,0.00,WeatherDisplay:10.37,2013-02-17 03:00:00,
2013-02-16 21:05:00,1.8,-6.3,30.14,North,351,0.0,0.0,68,0.00,CLR,,0.00,WeatherDisplay:10.37,2013-02-17 03:05:00,
2013-02-16 21:15:00,1.5,-6.1,30.14,North,352,0.0,0.0,70,0.00,CLR,,0.00,WeatherDisplay:10.37,2013-02-17 03:15:00,
2013-02-16 21:20:00,1.3,-6.2,30.14,North,352,0.0,0.0,70,0.00,CLR,,0.00,WeatherDisplay:10.37,2013-02-17 03:20:00,
2013-02-16 21:25:00,1.1,-6.4,30.14,North,352,0.0,0.0,70,0.00,CLR,,0.00,WeatherDisplay:10.37,2013-02-17 03:25:00,
2013-02-16 21:30:00,0.9,-6.3,30.14,North,352,0.0,0.0,71,0.00,CLR,,0.00,WeatherDisplay:10.37,2013-02-17 03:30:00,
2013-02-16 21:35:00,0.7,-6.5,30.14,North,352,0.0,0.0,71,0.00,CLR,,0.00,WeatherDisplay:10.37,2013-02-17 03:35:00,
2013-02-16 21:40:00,0.5,-6.7,30.14,North,352,0.0,0.0,71,0.00,CLR,,0.00,WeatherDisplay:10.37,2013-02-17 03:40:00,
2013-02-16 21:50:00,0.3,-6.6,30.14,North,352,0.0,0.0,72,0.00,CLR,,0.00,WeatherDisplay:10.37,2013-02-17 03:50:00,
2013-02-16 21:55:00,0.1,-7.1,30.14,North,352,0.0,0.0,71,0.00,CLR,,0.00,WeatherDisplay:10.37,2013-02-17 03:55:00,
2013-02-16 22:00:00,0.0,-6.9,30.14,North,352,0.0,0.0,72,0.00,CLR,,0.00,WeatherDisplay:10.37,2013-02-17 04:00:00,
2013-02-16 22:05:00,0.0,-6.6,30.14,North,352,0.0,0.0,73,0.00,CLR,,0.00,WeatherDisplay:10.37,2013-02-17 04:05:00,
2013-02-16 22:10:00,0.0,-6.6,30.14,North,352,0.0,0.0,73,0.00,CLR,,0.00,WeatherDisplay:10.37,2013-02-17 04:10:00,
2013-02-16 22:15:00,0.3,-6.3,30.14,North,352,0.0,0.0,73,0.00,CLR,,0.00,WeatherDisplay:10.37,2013-02-17 04:15:00,
2013-02-16 22:20:00,0.3,-6.3,30.14,North,353,0.0,0.0,73,0.00,CLR,,0.00,WeatherDisplay:10.37,2013-02-17 04:20:00,
2013-02-16 22:25:00,0.3,-6.6,30.14,North,352,0.0,0.0,72,0.00,CLR,,0.00,WeatherDisplay:10.37,2013-02-17 04:25:00,
2013-02-16 22:30:00,0.1,-6.8,30.14,North,352,0.0,0.0,72,0.00,CLR,,0.00,WeatherDisplay:10.37,2013-02-17 04:30:00,
2013-02-16 22:35:00,0.0,-6.9,30.14,North,352,0.0,0.0,72,0.00,CLR,,0.00,WeatherDisplay:10.37,2013-02-17 04:35:00,
2013-02-16 22:45:00,-0.2,-6.5,30.14,North,352,0.0,0.0,74,0.00,CLR,,0.00,WeatherDisplay:10.37,2013-02-17 04:45:00,
2013-02-16 22:50:00,0.0,-6.0,30.14,North,352,0.0,0.0,75,0.00,CLR,,0.00,WeatherDisplay:10.37,2013-02-17 04:50:00,
2013-02-16 22:55:00,0.1,-5.9,30.14,North,352,0.0,0.0,75,0.00,CLR,,0.00,WeatherDisplay:10.37,2013-02-17 04:55:00,
2013-02-16 23:00:00,0.0,-6.3,30.14,North,352,0.0,0.0,74,0.00,CLR,,0.00,WeatherDisplay:10.37,2013-02-17 05:00:00,
2013-02-16 23:05:00,-0.2,-6.5,30.14,North,352,0.0,0.0,74,0.00,CLR,,0.00,WeatherDisplay:10.37,2013-02-17 05:05:00,
2013-02-16 23:10:00,-0.6,-6.9,30.14,North,353,0.0,0.0,74,0.00,CLR,,0.00,WeatherDisplay:10.37,2013-02-17 05:10:00,
2013-02-16 23:20:00,-1.0,-7.3,30.14,North,353,0.0,0.0,74,0.00,CLR,,0.00,WeatherDisplay:10.37,2013-02-17 05:20:00,
2013-02-16 23:25:00,-1.2,-7.5,30.14,North,353,0.0,0.0,74,0.00,CLR,,0.00,WeatherDisplay:10.37,2013-02-17 05:25:00,
2013-02-16 23:30:00,-1.2,-7.2,30.13,North,352,0.0,0.0,75,0.00,CLR,,0.00,WeatherDisplay:10.37,2013-02-17 05:30:00,
2013-02-16 23:35:00,-1.4,-7.7,30.13,North,353,0.0,0.0,74,0.00,CLR,,0.00,WeatherDisplay:10.37,2013-02-17 05:35:00,
2013-02-16 23:40:00,-1.6,-7.9,30.13,North,352,0.0,0.0,74,0.00,CLR,,0.00,WeatherDisplay:10.37,2013-02-17 05:40:00,
2013-02-16 23:50:00,-2.0,-8.0,30.13,North,353,0.0,0.0,75,0.00,CLR,,0.00,WeatherDisplay:10.37,2013-02-17 05:50:00,
2013-02-16 23:55:00,-2.0,-7.7,30.13,North,353,0.0,0.0,76,0.00,CLR,,0.00,WeatherDisplay:10.37,2013-02-17 05:55:00,